Date String (YYYY-MM-DD hh:mm:ss) UTC,Instrument flags,Ambient pressure (hPa),Sample flow (lpm),Bypass flow (lpm),Sample temperature (°C),Ambient temperature (°C),ASC tube jacket temperature (°C),LED temperature (°C),Box temperature (°C),Sample RH (%),Span deviation,Mass concentration (μg/m³),Mass concentration (μg/m³),Mass concentration (μg/m³)
DateTimeUTC,F1_M11,P_M11,Q1_M11,Q2_M11,T1_M11,T2_M11,T3_M11,T4_M11,T5_M11,U1_M11,ZSPAN_M11,X0_M11,X2_M11,X1_M11
2022-11-20 14:00:00,,0828.1,5.01,0.00,22.3,21.1,00.0,31.1,24.1,07.3,0000.0,0001.85,0001.36,0001.13
2022-11-20 14:01:00,,0828.1,5.01,0.00,22.3,21.1,00.0,31.1,24.1,07.0,0000.0,0001.77,0001.33,0001.12
2022-11-20 14:02:00,,0828.1,4.98,0.00,22.2,21.0,00.0,31.1,24.0,06.6,0000.0,0001.79,0001.31,0001.09
2022-11-20 14:03:00,,0828.1,5.01,0.00,22.2,21.0,00.0,31.1,24.0,07.0,0000.0,0002.06,0001.30,0001.06
2022-11-20 14:04:00,,0828.2,5.01,0.00,22.2,20.9,00.0,31.1,24.0,07.2,0000.0,0002.03,0001.29,0001.06
2022-11-20 14:05:00,,0828.2,5.00,0.00,22.2,20.8,00.0,31.1,24.0,07.2,0000.0,0002.02,0001.30,0001.07
2022-11-20 14:06:00,,0828.2,5.01,0.00,22.2,20.8,00.0,31.1,24.0,07.2,0000.0,0002.08,0001.32,0001.08
2022-11-20 14:07:00,,0828.2,5.00,0.00,22.2,20.7,00.0,31.1,24.0,07.2,0000.0,0002.08,0001.31,0001.08
2022-11-20 14:08:00,,0828.2,5.01,0.00,22.2,20.8,00.0,31.1,23.9,07.2,0000.0,0002.09,0001.30,0001.07
2022-11-20 14:09:00,,0828.2,4.99,0.00,22.2,21.5,00.0,31.0,24.1,07.2,0000.0,0002.08,0001.29,0001.07
2022-11-20 14:10:00,,0828.2,5.00,0.00,22.3,22.4,00.0,31.0,24.3,07.3,0000.0,0003.10,0001.28,0001.07
2022-11-20 14:11:00,,0828.2,5.00,0.00,22.4,22.6,00.0,31.1,24.4,07.4,0000.0,0003.43,0001.30,0001.07
2022-11-20 14:12:00,,0828.3,5.00,0.00,22.4,22.2,00.0,31.2,24.4,07.4,0000.0,0003.46,0001.31,0001.09
2022-11-20 14:13:00,,0828.3,4.99,0.00,22.4,21.9,00.0,31.2,24.3,07.5,0000.0,0003.51,0001.37,0001.14
2022-11-20 14:14:00,,0828.3,5.00,0.00,22.4,21.7,00.0,31.2,24.3,07.6,0000.0,0003.34,0001.44,0001.23
2022-11-20 14:15:00,,0828.4,5.00,0.00,22.4,21.5,00.0,31.2,24.3,07.6,0000.0,0003.41,0001.51,0001.27
2022-11-20 14:16:00,,0828.3,4.99,0.00,22.4,21.4,00.0,31.2,24.3,07.7,0000.0,0003.50,0001.57,0001.31
2022-11-20 14:17:00,,0828.4,5.02,0.00,22.4,21.3,00.0,31.2,24.2,07.7,0000.0,0003.61,0001.63,0001.35
2022-11-20 14:18:00,,0828.4,4.98,0.00,22.4,21.3,00.0,31.2,24.2,07.8,0000.0,0003.68,0001.68,0001.39
2022-11-20 14:19:00,,0828.5,5.00,0.00,22.4,21.2,00.0,31.2,24.2,07.8,0000.0,0003.70,0001.71,0001.46
2022-11-20 14:20:00,,0828.4,5.01,0.00,22.4,21.2,00.0,31.2,24.2,07.7,0000.0,0003.83,0001.76,0001.50
2022-11-20 14:21:00,,0828.4,4.98,0.00,22.4,21.1,00.0,31.3,24.2,07.8,0000.0,0003.38,0001.88,0001.53
2022-11-20 14:22:00,,0828.4,5.01,0.00,22.4,21.1,00.0,31.2,24.2,07.8,0000.0,0002.99,0001.94,0001.56
2022-11-20 14:23:00,,0828.4,5.00,0.00,22.4,21.1,00.0,31.2,24.2,07.7,0000.0,0003.03,0001.96,0001.57
2022-11-20 14:24:00,,0828.5,4.99,0.00,22.4,21.1,00.0,31.2,24.2,07.7,0000.0,0003.25,0002.02,0001.59
2022-11-20 14:25:00,,0828.5,5.01,0.00,22.3,21.0,00.0,31.2,24.1,07.6,0000.0,0003.44,0002.08,0001.57
2022-11-20 14:26:00,,0828.4,5.00,0.00,22.3,21.0,00.0,31.2,24.1,07.6,0000.0,0003.51,0002.09,0001.57
2022-11-20 14:27:00,,0828.5,4.99,0.00,22.3,21.2,00.0,31.2,24.1,07.7,0000.0,0003.56,0002.07,0001.57
2022-11-20 14:28:00,,0828.6,5.02,0.00,22.4,22.1,00.0,31.2,24.3,07.8,0000.0,0004.37,0002.08,0001.57
2022-11-20 14:29:00,,0828.8,4.98,0.00,22.5,22.8,00.0,31.2,24.5,07.9,0000.0,0004.58,0002.13,0001.59
2022-11-20 14:30:00,,0829.0,5.01,0.00,22.6,22.6,00.0,31.3,24.6,08.0,0000.0,0004.99,0002.26,0001.62
2022-11-20 14:31:00,,0829.0,4.99,0.00,22.6,22.3,00.0,31.3,24.5,08.1,0000.0,0006.08,0002.42,0001.69
2022-11-20 14:32:00,,0828.8,5.00,0.00,22.6,22.0,00.0,31.3,24.5,08.2,0000.0,0006.89,0002.56,0001.78
2022-11-20 14:33:00,,0829.0,5.00,0.00,22.6,21.7,00.0,31.4,24.4,08.2,0000.0,0007.29,0002.71,0001.90
2022-11-20 14:34:00,,0828.9,4.99,0.00,22.6,21.6,00.0,31.4,24.4,08.2,0000.0,0007.50,0002.88,0002.03
2022-11-20 14:35:00,,0828.9,5.01,0.00,22.5,21.4,00.0,31.4,24.4,08.2,0000.0,0007.70,0003.08,0002.15
2022-11-20 14:36:00,,0829.1,5.00,0.00,22.5,21.4,00.0,31.4,24.4,08.2,0000.0,0007.94,0003.18,0002.30
2022-11-20 14:37:00,,0828.8,5.00,0.00,22.5,21.3,00.0,31.4,24.3,08.3,0000.0,0008.03,0003.26,0002.46
2022-11-20 14:38:00,,0828.8,5.00,0.00,22.5,21.3,00.0,31.4,24.3,08.4,0000.0,0008.14,0003.39,0002.65
2022-11-20 14:39:00,,0829.1,5.01,0.00,22.5,21.2,00.0,31.4,24.3,08.5,0000.0,0007.90,0003.52,0002.87
2022-11-20 14:40:00,,0828.6,4.99,0.00,22.5,21.2,00.0,31.4,24.3,08.6,0000.0,0008.00,0003.65,0003.09
2022-11-20 14:41:00,,0828.8,5.00,0.00,22.5,21.2,00.0,31.4,24.3,08.6,0000.0,0008.04,0003.76,0003.25
2022-11-20 14:42:00,,0828.9,5.01,0.00,22.5,21.1,00.0,31.4,24.3,08.6,0000.0,0007.87,0003.86,0003.36
2022-11-20 14:43:00,,0828.8,5.00,0.00,22.5,21.1,00.0,31.4,24.3,08.7,0000.0,0007.51,0003.93,0003.46
2022-11-20 14:44:00,,0829.3,4.99,0.00,22.4,21.1,00.0,31.3,24.2,08.5,0000.0,0007.42,0003.95,0003.53
2022-11-20 14:45:00,,0829.4,5.01,0.00,22.4,21.1,00.0,31.3,24.2,08.3,0000.0,0007.83,0003.97,0003.55
2022-11-20 14:46:00,,0829.4,5.00,0.00,22.4,21.0,00.0,31.3,24.2,08.4,0000.0,0008.09,0003.97,0003.58
2022-11-20 14:47:00,,0828.9,5.00,0.00,22.4,21.0,00.0,31.3,24.2,08.3,0000.0,0008.46,0003.98,0003.59
2022-11-20 14:48:00,,0828.8,5.01,0.00,22.4,21.0,00.0,31.3,24.1,08.5,0000.0,0008.60,0004.04,0003.61
2022-11-20 14:49:00,,0828.7,5.00,0.00,22.4,20.9,00.0,31.3,24.1,08.6,0000.0,0008.75,0004.08,0003.65
2022-11-20 14:50:00,,0828.7,4.98,0.00,22.4,20.9,00.0,31.3,24.1,08.7,0000.0,0008.74,0004.07,0003.66
2022-11-20 14:51:00,,0828.7,5.01,0.00,22.3,20.9,00.0,31.3,24.1,08.5,0000.0,0008.69,0004.03,0003.62
2022-11-20 14:52:00,,0828.9,5.01,0.00,22.3,20.9,00.0,31.3,24.0,08.4,0000.0,0009.17,0003.99,0003.56
2022-11-20 14:53:00,,0828.7,4.98,0.00,22.3,20.8,00.0,31.3,24.0,08.4,0000.0,0009.82,0003.98,0003.48
2022-11-20 14:54:00,,0828.8,5.01,0.00,22.3,20.8,00.0,31.2,24.0,08.5,0000.0,0010.12,0003.95,0003.42
2022-11-20 14:55:00,,0829.2,5.00,0.00,22.3,20.8,00.0,31.2,24.0,08.7,0000.0,0010.20,0003.95,0003.39
2022-11-20 14:56:00,,0829.0,4.99,0.00,22.3,20.8,00.0,31.2,24.0,08.7,0000.0,0009.99,0003.98,0003.42
2022-11-20 14:57:00,,0828.7,5.01,0.00,22.3,21.1,00.0,31.2,24.1,08.7,0000.0,0009.84,0004.01,0003.44
2022-11-20 14:58:00,,0829.1,5.00,0.00,22.4,22.1,00.0,31.1,24.3,08.6,0000.0,0009.46,0004.05,0003.47
2022-11-20 14:59:00,,0828.9,5.01,0.00,22.5,23.1,00.0,31.2,24.5,08.5,0000.0,0010.09,0004.02,0003.45
